Weather History for KLVM - March, 2013

Change the Weather History Date:

Sunday, March 24, 2013

  Actual Average Record
Temperature  
Mean Temperature 22 °F 37 °F  
Max Temperature 35 °F 49 °F 71 °F (2007)
Min Temperature 10 °F 26 °F -21 °F (1965)
Degree Days  
Heating Degree Days 44 28  
Month to date heating degree days 724  
Since 1 July heating degree days 6072  
Cooling Degree Days 0 0  
Month to date cooling degree days 0  
Year to date cooling degree days 0  
Moisture  
Dew Point 7 °F    
Average Humidity 57    
Maximum Humidity 81    
Minimum Humidity 31    
Precipitation  
Precipitation 0.00 in 0.04 in 0.25 in (1995)
Month to date precipitation 0.59  
Year to date precipitation 1.58  
Sea Level Pressure  
Sea Level Pressure 30.35 in    
Wind  
Wind Speed 7 mph (West)    
Max Wind Speed 13 mph    
Max Gust Speed 17 mph    
Visibility 10 miles    
Events      
T = Trace of Precipitation, MM = Missing Value Source: NWS Daily Summary

Daily Weather History Graph

Daily Weather History Graph

Search for Another Location

Airport or City:

Trip Planner

Search our weather history database for the weather conditions in past years. The results will help you decide how hot, cold, wet, or windy it might be!

Date:

Astronomy

Mar. 24, 2013 Rise Set
Actual Time 7:16 AM MDT 7:40 PM MDT
Civil Twilight 6:46 AM MDT 8:09 PM MDT
Nautical Twilight 6:11 AM MDT 8:45 PM MDT
Astronomical Twilight 5:35 AM MDT 9:21 PM MDT
Moon 5:06 PM MDT (3/24) 5:36 AM MDT (3/24)
Length of Visible Light 13h 23m
Length of Day
12h 23m
Waxing Gibbous, 92% of the Moon is Illuminated
Mar 24
Waxing Gibbous
Mar 27
Full
Apr 2
Last Quarter
Apr 10
New
Apr 18
First Quarter

Hourly Weather History & Observations

Time (MDT) Temp. Windchill Dew Point Humidity Pressure Visibility Wind Dir Wind Speed Gust Speed Precip Events Conditions
12:53 AM 15.1 °F 9.4 °F 8.1 °F 74% 30.35 in 10.0 mi SW 3.5 mph - N/A   Mostly Cloudy
1:53 AM 12.0 °F 5.9 °F 7.0 °F 80% 30.35 in 10.0 mi WSW 3.5 mph - N/A   Clear
2:53 AM 12.9 °F 3.8 °F 8.1 °F 81% 30.34 in 10.0 mi NW 5.8 mph - N/A   Clear
3:53 AM 15.1 °F 3.3 °F 9.0 °F 77% 30.33 in - WNW 9.2 mph - N/A   Mostly Cloudy
4:53 AM 14.0 °F 2.9 °F 8.1 °F 77% 30.33 in 10.0 mi West 8.1 mph - N/A   Clear
5:53 AM 12.9 °F 0.7 °F 7.0 °F 77% 30.34 in - WNW 9.2 mph - N/A   Clear
6:53 AM 10.9 °F -2.6 °F 6.1 °F 81% 30.36 in 10.0 mi NW 10.4 mph - N/A   Clear
7:53 AM 12.0 °F -1.3 °F 7.0 °F 80% 30.39 in - NW 10.4 mph - N/A   Clear
8:53 AM 17.1 °F 6.6 °F 10.9 °F 77% 30.39 in 10.0 mi NW 8.1 mph - N/A   Clear
9:53 AM 24.1 °F 15.2 °F 12.0 °F 60% 30.38 in 10.0 mi WNW 8.1 mph - N/A   Clear
10:53 AM 27.0 °F 18.7 °F 10.0 °F 49% 30.36 in 10.0 mi West 8.1 mph - N/A   Clear
11:53 AM 28.9 °F 21.1 °F 8.1 °F 41% 30.35 in 10.0 mi West 8.1 mph - N/A   Mostly Cloudy
12:53 PM 28.0 °F 18.6 °F 9.0 °F 45% 30.36 in 10.0 mi West 10.4 mph 17.3 mph N/A   Mostly Cloudy
1:53 PM 30.9 °F 24.3 °F 5.0 °F 33% 30.35 in 10.0 mi Variable 6.9 mph - N/A   Mostly Cloudy
2:53 PM 30.9 °F 24.3 °F 8.1 °F 38% 30.34 in 10.0 mi Variable 6.9 mph - N/A   Overcast
3:53 PM 33.1 °F 23.9 °F 7.0 °F 34% 30.32 in 10.0 mi West 12.7 mph 16.1 mph 0.00 in   Overcast
4:53 PM 32.0 °F 23.6 °F 6.1 °F 34% 30.33 in 10.0 mi West 10.4 mph - N/A   Overcast
5:53 PM 32.0 °F 27.5 °F 3.9 °F 31% 30.32 in 10.0 mi NNW 4.6 mph - N/A   Mostly Cloudy
6:53 PM 30.9 °F 26.2 °F 3.0 °F 31% 30.34 in 10.0 mi West 4.6 mph - N/A   Clear
7:53 PM 21.0 °F 13.4 °F 7.0 °F 55% 30.36 in 10.0 mi South 5.8 mph - N/A   Clear
8:53 PM 21.0 °F 11.4 °F 7.0 °F 55% 30.34 in 10.0 mi South 8.1 mph - N/A   Clear
9:53 PM 23.0 °F 17.0 °F 6.1 °F 48% 30.32 in 10.0 mi SE 4.6 mph - N/A   Clear
10:53 PM 17.1 °F 7.6 °F 3.9 °F 56% 30.34 in 10.0 mi ESE 6.9 mph - N/A   Clear
11:53 PM 15.1 °F 6.4 °F 5.0 °F 64% 30.33 in 10.0 mi South 5.8 mph - N/A   Clear